Find Starlink 11075

NORAD ID: 58706 Int'l Des: 2024-002 Owner: SPXS Country: US Constellation: starlink operational
又名: STARLINK-11075 [DTC] celestrak
LEOCIRCULAR

当前视图

正在加载3D地球...

About Starlink 11075

Starlink 11075 (NORAD 58706) is a starlink constellation satellite (v2 mini d2c) launched Jan 3, 2024 by SPXS of US. It operates in LEO, CIRCULAR orbit with a mass of 960.00 kg.

即将过境

Passes for default location (London). Set your location on the main map for personalized predictions.

高度历史

Loading altitude history...

两行轨道根数

1 58706U 24002B 26237.20723486 .00087535 00000-0 56153-3 0 9997
2 58706 53.1506 161.9107 0004594 100.1722 259.9817 15.75543418152921
Epoch: Aug 25, 2026 • Age: 23 hours

当前状态

高度 342.8 km
远地点 / 近地点 N/A
速度 7.71 km/s
星下点 10.60°N, 132.8°E
发射日期 Jan 3, 2024
运行时间 2.6 years
类型 internet

技术详情

分类 Payload
质量 960.00 kg
干质量 910.00 kg
总质量 960.00 kg
长度 0.30 m
直径 4.10 m
跨度 29.00 m
形状 Box + pan
制造商 SPXS
平台类型 Starlink V2MD
阶段状态 In Orbit
所有者/国家 SPXS/US

Most Searched